Preview of NWS' New Version of Forecast
This preview is not operational and should not be used for support decisions.

Regional Weather Roundup (RWR)

Issued by Gray - Portland, ME (GYX)

                            
000
ASUS41 KGYX 240410
RWRGYX
WEATHER ROUNDUP FOR MAINE AND NEW HAMPSHIRE
NATIONAL WEATHER SERVICE GRAY ME
1200 AM EDT MON JUN 24 2019

MEZ002-005-006-010-012-015-018-020-021-024-026-027-029-240500-
MAINE
  
CITY           SKY/WX    TMP DP  RH WIND       PRES   REMARKS
PORTLAND       FAIR      67  46  47 W6        29.75R                  
SANFORD        FAIR      60  49  66 W6        29.78R                  
BAR HARBOR     FOG       55  54  94 CALM      29.74R VSB 1            
WISCASSET      FAIR      58  51  78 CALM      29.74R                  
ROCKLAND       FAIR      57  54  89 CALM      29.73R                  
FRYEBURG       FAIR      72  42  34 VRB7      29.77S                  
LEWISTONAUBURN FAIR      61  49  64 CALM      29.76R                  
AUGUSTA        FAIR      64  48  56 NW8       29.75R                  
WATERVILLE     FAIR      64  47  53 N6        29.73R                  
BANGOR         FAIR      61  52  72 N9        29.74R                  
GREENVILLE       N/A     58  40  51 N8        29.76R                  
MILLINOCKET    FAIR      56  41  57 CALM      29.76R                  
HOULTON        FAIR      47  42  83 CALM      29.73R                  
PRESQUE ISLE   FAIR      48  43  82 CALM      29.76R                  
FRENCHVILLE    FAIR      52  36  54 N5        29.75S                  
CARIBOU        FAIR      53  38  56 NW6       29.74S                  
$$

NHZ002-005-008-009-011-012-014-240500-
NEW HAMPSHIRE
  
CITY           SKY/WX    TMP DP  RH WIND       PRES   REMARKS
PORTSMOUTH     PTCLDY    69  46  45 W7        29.76S                  
ROCHESTER      FAIR      70  45  40 W6        29.78R                  
NASHUA         FAIR      65  59  81 CALM      29.82R                  
MANCHESTER     FAIR      69  53  56 CALM      29.79R                  
CONCORD        FAIR      65  49  56 CALM      29.80S                  
LACONIA        FAIR      63  49  60 CALM      29.81R                  
PLYMOUTH       FAIR      56  51  83 CALM      29.80S                  
BERLIN         CLOUDY    55  48  77 N5        29.81R                  
WHITEFIELD     FAIR      53  46  77 CALM      29.82R                  
JAFFREY        FAIR      68  52  56 VRB3      29.87R                  
KEENE          FAIR      61  55  81 CALM      29.84R                  
LEBANON        FAIR      57  50  77 S3        29.82S                  
MT WASHINGTON  PTCLDY    43  37  81 NW41G63     N/A                   
$$

VTZ005-007-008-240500-
VERMONT
  
CITY           SKY/WX    TMP DP  RH WIND       PRES   REMARKS
ST JOHNSBURY     N/A     58  50  75 MISG      29.80R                  
MONTPELIER     FAIR      66  47  50 W7        29.88S                  
BURLINGTON     FAIR      70  51  51 VRB3      29.82F                  
$$

MAZ007-012-024-CTZ003-RIZ002-NYZ038-NYZ072-240500-
SOUTHERN NEW ENGLAND AND NY
  
CITY           SKY/WX    TMP DP  RH WIND       PRES   REMARKS
WORCESTER      FAIR      67  53  61 W13       29.86R                  
NANTUCKET      FAIR      64  58  80 W18G30    29.80S                  
PROVIDENCE     FAIR      69  62  78 W8        29.82S                  
HARTFORD       FAIR      72  49  44 VRB3      29.85R                  
ALBANY         FAIR      67  48  50 NW9       29.88S                  
NEW YORK CITY  FAIR      77  53  43 W12       29.87R                  
$$

ANZ081-ANZ082-ANZ150-NHZ014-MEZ023>029-240500-
COASTAL MARINE OBSERVATIONS
  
STATION/POSITION TIME  TEMP    WIND        PRES    WAVE
                       AIR SEA DIR/SP/G            HT/PER
                 (UTC) (F)     (DEG/KT/KT) (MB)    (FT/S)
ISLE OF SHOALS   0300   75     300/ 14/ 14 1007.3R
JEFFREYS LEDGE   0338      58                N/A     1/ 9
$$

.............KEY..............
   WCI - WIND CHILL
   TC  - TEMPERATURE IN CELSIUS
   VSB - VISIBILITY IN MILES
   HX  - HEAT INDEX
   FAIR- INDICATES FEW OR NO CLOUDS BELOW 12,000 FT, WITH NO 
         SIGNIFICANT WEATHER AND/OR OBSTRUCTIONS TO VISIBILITY.